CDT,Max TemperatureF,Mean TemperatureF,Min TemperatureF,Max Dew PointF,MeanDew PointF,Min DewpointF,Max Humidity, Mean Humidity, Min Humidity, Max Sea Level PressureIn, Mean Sea Level PressureIn, Min Sea Level PressureIn, Max VisibilityMiles, Mean VisibilityMiles, Min VisibilityMiles, Max Wind SpeedMPH, Mean Wind SpeedMPH, Max Gust SpeedMPH,PrecipitationIn, CloudCover, Events, WindDirDegrees
2013-3-1,57,44,32,32,30,26,89,62,31,30.22,30.16,30.12,10,10,9,12,4,24,0.00,1,,296
2013-3-2,50,40,30,32,26,21,89,64,33,30.30,30.25,30.19,10,10,9,14,3,21,0.00,2,,335
2013-3-3,60,43,26,35,28,23,92,58,26,30.30,30.20,30.08,10,10,9,8,2,,0.00,0,,192
2013-3-4,73,56,39,58,49,35,87,67,44,30.08,29.93,29.82,10,10,10,23,9,36,0.00,4,,187
2013-3-5,70,60,48,61,46,22,88,60,19,30.27,30.02,29.83,10,10,10,15,7,28,0.00,4,,277
2013-3-6,64,52,39,34,24,18,79,42,16,30.39,30.31,30.24,10,10,10,8,5,16,0.00,0,,347
2013-3-7,66,49,32,36,32,27,92,60,23,30.37,30.28,30.24,10,10,9,7,2,,0.00,0,,94
2013-3-8,72,53,34,43,37,32,93,61,27,30.30,30.22,30.11,10,10,7,9,2,,0.00,0,,133
2013-3-9,72,62,51,58,54,45,83,72,59,30.12,30.00,29.90,10,10,10,17,5,28,0.00,4,,141
2013-3-10,73,63,48,63,56,42,94,85,64,29.98,29.87,29.83,10,9,2,17,6,31,0.38,7,Rain-Thunderstorm,176
2013-3-11,59,49,37,42,33,29,89,59,32,30.06,30.01,29.96,10,10,10,14,6,20,0.00,1,,305
2013-3-12,69,50,32,39,31,24,92,60,21,30.27,30.16,30.08,10,10,7,7,1,16,0.00,0,,352
2013-3-13,70,53,37,36,31,23,93,49,19,30.45,30.37,30.27,10,10,10,12,3,20,0.00,0,,20
2013-3-14,73,53,34,41,34,26,92,56,22,30.45,30.36,30.27,10,10,10,9,2,,0.00,0,,176
2013-3-15,80,60,42,55,46,39,93,61,28,30.27,30.18,30.08,10,10,10,15,6,22,0.00,0,,214
2013-3-16,80,67,55,57,54,50,94,69,37,30.06,29.99,29.88,10,10,10,14,7,23,0.00,2,,201
2013-3-17,81,66,51,64,57,50,100,84,51,29.93,29.87,29.75,10,7,1,16,3,26,0.00,3,,189
2013-3-18,88,77,63,65,63,49,94,74,43,29.99,29.80,29.72,10,8,5,17,7,24,0.00,6,Thunderstorm,211
2013-3-19,75,62,50,48,40,31,80,48,22,30.07,30.02,29.96,10,10,10,9,6,17,0.00,0,,65
2013-3-20,72,58,43,46,36,22,90,51,17,30.22,30.13,30.06,10,10,9,10,5,20,0.09,1,Rain,8
2013-3-21,66,52,39,42,35,29,89,54,29,30.06,29.95,29.81,10,10,10,14,4,17,0.00,4,,128
2013-3-22,78,66,55,65,57,43,88,75,58,29.83,29.77,29.70,10,10,8,6,4,,0.01,7,,109
2013-3-23,75,65,57,65,58,54,90,81,66,29.81,29.71,29.59,10,9,2,9,2,,0.12,7,Rain-Thunderstorm,32
2013-3-24,60,51,39,55,42,28,94,66,31,30.10,29.84,29.65,10,10,10,20,6,33,0.00,4,,311
2013-3-25,61,46,33,29,22,16,82,45,18,30.33,30.21,30.12,10,10,10,15,4,26,0.00,0,,321
2013-3-26,57,42,28,31,23,18,85,50,23,30.45,30.39,30.33,10,10,10,8,4,,0.00,0,,343
2013-3-27,66,47,28,35,28,23,89,58,20,30.45,30.35,30.25,10,10,9,8,1,,0.00,0,,206
2013-3-28,73,54,35,41,36,29,93,60,21,30.36,30.29,30.22,10,10,9,8,1,,0.00,3,,172
2013-3-29,80,64,48,55,47,35,92,61,21,30.28,30.22,30.15,10,10,7,15,3,21,0.00,3,,209
2013-3-30,78,66,54,63,57,52,94,76,50,30.18,30.09,29.97,10,9,2,14,4,22,0.15,3,Rain,201
2013-3-31,72,64,55,63,59,54,96,88,68,30.01,29.98,29.94,10,5,1,10,2,16,0.00,7,Rain-Thunderstorm,215